Location: Newark
(34.6283°N, 36.0776°E)
Time: 16:57:09
(UTC+00:00)

A-11 Canister half - Pass Details

Date: 19 September 2019
Orbit: 1527 x 1682 km, 47.3° (Epoch: 20 October)

Event Time Altitude Azimuth Distance (km) Brightness Sun altitude
Rises 04:47:38 0° 286° (WNW) 4,735 10.9 16.9°
Reaches altitude 10° 04:51:00 10° 294° (WNW) 3,771 10.5 17.6°
Maximum altitude 04:59:49 39° 1° (N) 2,263 10.0 19.3°
Drops below altitude 10° 05:08:54 10° 67° (ENE) 3,885 12.1 21.2°
Sets 05:12:26 0° 76° (ENE) 4,891 12.7 21.9°
